Punkttermin-Prognose für Kampen/Sylt
Modell: MOSMIX (Deutscher Wetterdienst)
Modelllaufzeit: 06 UTC
Aktualisierung: stündlich
Freitag - 04.09.2026
| Wetter - | Temperaturen | Wind | Niederschlag | Druck | Sonne
Zeit GZ | Bewölkung | TT MAX MIN TG TM | DD FF FX1 | RR1 RR24 | PPPP | SS1 SS24
02:00 Uhr | --- | --- --- --- --- --- | --- --- --- | --- | --- | ---
03:00 Uhr | --- | --- --- --- --- --- | --- --- --- | --- | --- | ---
04:00 Uhr | --- | --- --- --- --- --- | --- --- --- | --- | --- | ---
05:00 Uhr | --- | --- --- --- --- --- | --- --- --- | --- | --- | ---
06:00 Uhr | --- | --- --- --- --- --- | --- --- --- | --- | --- | ---
07:00 Uhr | --- | --- --- --- --- --- | --- --- --- | --- | --- | ---
08:00 Uhr | --- | --- --- --- --- --- | --- --- --- | --- | --- | ---
09:00 Uhr | Regen | 16 --- --- 16 --- | SW 20 --- | 2.3 | 1004 | 0.0
10:00 Uhr | Regen | 17 --- --- 16 --- | W 20 --- | 1.3 | 1004 | 0.0
11:00 Uhr | Regen | 17 --- --- 16 --- | W 22 --- | 1.1 | 1003 | 0.0
12:00 Uhr | Regen | 17 --- --- 16 --- | W 24 --- | 1.1 | 1003 | 0.0
13:00 Uhr | Regen | 17 --- --- 17 --- | W 26 --- | 0.8 | 1003 | 0.0
14:00 Uhr | Regen | 17 --- --- 17 --- | W 28 43 | 0.6 | 1002 | 0.0
15:00 Uhr | leichter Regen | 17 --- --- 17 --- | W 32 46 | 0.6 | 1002 | 0.1
16:00 Uhr | leichter Regen | 17 --- --- 16 --- | W 35 50 | 0.5 | 1002 | 0.1
17:00 Uhr | leichter Regen | 17 --- --- 16 --- | W 37 56 | 0.3 | 1003 | 0.1
18:00 Uhr | leichter Regen | 17 --- --- 16 --- | W 41 61 | 0.2 | 1003 | 0.1
19:00 Uhr | leichter Regen | 17 --- --- 15 --- | W 43 63 | 0.2 | 1004 | 0.1
20:00 Uhr | leichter Regen | 17 18 --- 16 --- | W 44 67 | 0.2 | 1004 | 0.1
21:00 Uhr | leichter Regen | 16 --- --- 15 --- | W 46 68 | 0.2 | 1005 | 0.0
22:00 Uhr | leichter Regen | 16 --- --- 15 --- | W 46 68 | 0.2 | 1005 | 0.0
23:00 Uhr | leichter Regen | 16 --- --- 15 --- | W 46 68 | 0.2 | 1006 | 0.0
00:00 Uhr | leichter Regen | 16 --- --- 15 --- | W 46 70 | 0.2 | 1006 | 0.0
Samstag - 05.09.2026
| Wetter - | Temperaturen | Wind | Niederschlag | Druck | Sonne
Zeit GZ | Bewölkung | TT MAX MIN TG TM | DD FF FX1 | RR1 RR24 | PPPP | SS1 SS24
01:00 Uhr | leichter Regen | 16 --- --- 15 --- | W 48 70 | 0.1 | 1007 | 0.0
02:00 Uhr | leichter Regen | 16 --- --- 15 --- | W 46 68 | 0.1 | 1007 | 0.0
03:00 Uhr | leichter Regen | 16 --- --- 15 --- | W 44 67 | 0.1 | 1007 | 0.0
04:00 Uhr | leichter Regen | 16 --- --- 15 --- | W 44 65 | 0.1 | 1007 | 0.0
05:00 Uhr | leichter Regen | 16 --- --- 14 --- | W 43 63 | 0.1 | 1007 | 0.0
06:00 Uhr | leichter Regen | 16 --- --- 14 --- | W 43 63 | 0.3 | 1008 | 0.0
07:00 Uhr | leichter Regen | 16 --- --- 14 --- | W 41 61 | 0.3 | 1008 | 0.0
08:00 Uhr | leichter Regen | 16 --- 15 14 --- | W 41 61 | 0.4 | 1008 | 0.0
09:00 Uhr | leichter Regen | 16 --- --- 15 --- | W 43 63 | 0.5 | 1009 | 0.1
10:00 Uhr | leichter Regen | 16 --- --- 15 --- | W 43 63 | 0.6 | 1010 | 0.2
11:00 Uhr | leichter Regen | 16 --- --- 16 --- | W 44 65 | 0.5 | 1010 | 0.3
12:00 Uhr | leichter Regen | 16 --- --- 16 --- | W 44 65 | 0.4 | 1011 | 0.4
13:00 Uhr | leichter Regen | 16 --- --- 17 --- | W 46 67 | 0.4 | 1012 | 0.4
14:00 Uhr | leichter Regen | 17 --- --- 17 --- | W 48 68 | 0.3 | 1012 | 0.5
15:00 Uhr | leichter Regen | 17 --- --- 17 --- | W 48 68 | 0.3 | 1013 | 0.5
16:00 Uhr | leichter Regen | 17 --- --- 17 --- | W 48 70 | 0.2 | 1014 | 0.5
17:00 Uhr | leichter Regen | 17 --- --- 17 --- | W 50 70 | 0.2 | 1014 | 0.4
18:00 Uhr | leichter Regen | 16 --- --- 16 --- | W 48 70 | 0.2 | 1015 | 0.4
19:00 Uhr | leichter Regen | 16 --- --- 15 --- | NW 48 70 | 0.2 | 1016 | 0.3
20:00 Uhr | leichter Regen | 16 18 --- 14 --- | NW 48 70 | 0.2 | 1016 | 0.2
21:00 Uhr | leichter Regen | 16 --- --- 14 --- | NW 48 72 | 0.1 | 1017 | 0.1
22:00 Uhr | leichter Regen | 15 --- --- 14 --- | NW 48 72 | 0.1 | 1018 | 0.0
23:00 Uhr | leichter Regen | 15 --- --- 14 | NW 48 70 | 0.1 | 1019 | 0.0
00:00 Uhr | leichter Regen | 15 --- --- 14 16 | NW 48 70 | 0.1 5.9 | 1019 | 0.0 4.2
Sonntag - 06.09.2026
| Wetter - | Temperaturen | Wind | Niederschlag | Druck | Sonne
Zeit GZ | Bewölkung | TT MAX MIN TG TM | DD FF FX1 | RR1 RR24 | PPPP | SS1 SS24
01:00 Uhr | leichter Regen | 15 --- --- 14 --- | NW 48 70 | 0.1 | 1020 | 0.0
02:00 Uhr | leichter Regen | 15 --- --- 14 --- | NW 44 67 | 0.1 | 1020 | 0.0
03:00 Uhr | leichter Regen | 15 --- --- 14 --- | NW 43 63 | 0.1 | 1021 | 0.0
04:00 Uhr | wolkig | 15 --- --- 14 --- | NW 43 61 | 0.0 | 1021 | 0.0
05:00 Uhr | leichter Regen | 15 --- --- 14 --- | NW 41 59 | 0.1 | 1021 | 0.0
06:00 Uhr | wolkig | 15 --- --- 14 --- | NW 39 57 | 0.0 | 1022 | 0.0
07:00 Uhr | wolkig | 15 --- --- 14 --- | NW 37 52 | 0.0 | 1022 | 0.1
08:00 Uhr | wolkig | 16 --- 14 15 --- | NW 35 50 | 0.0 | 1023 | 0.2
09:00 Uhr | wolkig | 16 --- --- 16 --- | NW 33 48 | 0.0 | 1023 | 0.4
10:00 Uhr | wolkig | 17 --- --- 18 --- | NW 32 46 | 0.0 | 1024 | 0.6
11:00 Uhr | wolkig | 17 --- --- 19 --- | NW 30 44 | 0.0 | 1024 | 0.6
12:00 Uhr | wolkig | 18 --- --- 21 --- | W 28 43 | 0.0 | 1024 | 0.7
13:00 Uhr | wolkig | 18 --- --- 22 --- | W 26 41 | 0.0 | 1024 | 0.6
14:00 Uhr | wolkig | 19 --- --- 23 --- | W 24 --- | 0.0 | 1024 | 0.6
15:00 Uhr | wolkig | 19 --- --- 23 --- | W 22 --- | 0.0 | 1024 | 0.6
16:00 Uhr | wolkig | 19 --- --- 22 --- | W 20 --- | 0.0 | 1024 | 0.6
17:00 Uhr | wolkig | 18 --- --- 21 --- | SW 20 --- | 0.0 | 1024 | 0.6
18:00 Uhr | wolkig | 18 --- --- 20 --- | SW 18 --- | 0.0 | 1023 | 0.5
19:00 Uhr | wolkig | 18 --- --- 18 --- | SW 17 --- | 0.0 | 1023 | 0.4
20:00 Uhr | wolkig | 17 20 --- 16 --- | SW 17 --- | 0.0 | 1023 | 0.3
21:00 Uhr | wolkig | 17 --- --- 16 --- | S 17 --- | 0.0 | 1022 | 0.1
22:00 Uhr | wolkig | 17 --- --- 15 --- | S 18 --- | 0.0 | 1022 | 0.0
23:00 Uhr | wolkig | 17 --- --- 15 | S 18 --- | 0.0 | 1022 | 0.0
00:00 Uhr | wolkig | 17 --- --- 15 17 | S 20 --- | 0.0 0.4 | 1021 | 0.0 6.8
Montag - 07.09.2026
| Wetter - | Temperaturen | Wind | Niederschlag | Druck | Sonne
Zeit GZ | Bewölkung | TT MAX MIN TG TM | DD FF FX3 | RR3 RR24 | PPPP | SS3 SS24
02:00 Uhr | wolkig | 17 --- --- 15 --- | S 24 --- | 0.0 | 1020 | 0.0
05:00 Uhr | wolkig | 17 --- --- 15 --- | S 26 --- | 0.0 | 1018 | 0.0
08:00 Uhr | wolkig | 17 --- 16 17 --- | S 28 --- | 0.0 | 1016 | 0.2
11:00 Uhr | wolkig | 18 --- --- 21 --- | S 30 44 | 0.0 | 1015 | 1.2
14:00 Uhr | wolkig | 20 --- --- 24 --- | S 32 48 | 0.0 | 1014 | 1.4
17:00 Uhr | wolkig | 20 --- --- 22 --- | SW 30 50 | 0.0 | 1013 | 1.4
20:00 Uhr | wolkig | 18 21 --- 18 --- | SW 26 46 | 0.0 | 1013 | 0.9
23:00 Uhr | wolkig | 18 --- --- 16 18 | SW 24 43 | 0.0 0.0 | 1012 | 0.1 5.1
Dienstag - 08.09.2026
| Wetter - | Temperaturen | Wind | Niederschlag | Druck | Sonne
Zeit GZ | Bewölkung | TT MAX MIN TG TM | DD FF FX3 | RR3 RR24 | PPPP | SS3 SS24
02:00 Uhr | stark bewölkt | 17 --- --- 16 --- | SW 26 41 | 0.0 | 1011 | 0.0
05:00 Uhr | stark bewölkt | 17 --- --- 16 --- | SW 28 43 | 0.0 | 1010 | 0.0
08:00 Uhr | stark bewölkt | 17 --- 16 16 --- | SW 32 50 | 0.0 | 1009 | 0.1
11:00 Uhr | leichter Regen | 17 --- --- 18 --- | SW 37 57 | 0.5 | 1008 | 0.7
14:00 Uhr | leichter Regen | 18 --- --- 19 --- | SW 41 61 | 0.8 | 1008 | 1.0
17:00 Uhr | leichter Regen | 17 --- --- 18 --- | SW 41 63 | 1.7 | 1008 | 0.9
20:00 Uhr | leichter Regen | 16 19 --- 14 --- | SW 37 63 | 0.9 | 1007 | 0.4
23:00 Uhr | Regen | 16 --- --- 14 17 | SW 33 57 | 2.4 6.3 | 1006 | 0.0 3.1
Mittwoch - 09.09.2026
| Wetter - | Temperaturen | Wind | Niederschlag | Druck | Sonne
Zeit GZ | Bewölkung | TT MAX MIN TG TM | DD FF FX3 | RR3 RR24 | PPPP | SS3 SS24
02:00 Uhr | leichter Regen | 16 --- --- 14 --- | SW 32 57 | 2.1 | 1004 | 0.0
05:00 Uhr | leichter Regen | 15 --- --- 14 --- | SW 32 54 | 1.8 | 1003 | 0.0
08:00 Uhr | leichter Regen | 15 --- 14 14 --- | SW 33 54 | 2.2 | 1002 | 0.1
11:00 Uhr | leichter Regen | 16 --- --- 16 --- | SW 35 57 | 2.2 | 1002 | 0.5
14:00 Uhr | leichter Regen | 16 --- --- 17 --- | W 37 56 | 1.7 | 1002 | 0.8
17:00 Uhr | leichter Regen | 16 --- --- 16 --- | W 39 59 | 1.5 | 1002 | 1.1
20:00 Uhr | leichter Regen | 15 18 --- 14 --- | W 37 59 | 1.4 | 1002 | 0.6
23:00 Uhr | Regen | 15 --- --- 13 15 | W 37 --- | 1.9 14.8 | 1002 | 0.0 3.1
Donnerstag - 10.09.2026
| Wetter - | Temperaturen | Wind | Niederschlag | Druck | Sonne
Zeit GZ | Bewölkung | TT MAX MIN TG TM | DD FF FX3 | RR3 RR24 | PPPP | SS3 SS24
02:00 Uhr | Regen | 14 --- --- 13 --- | W 37 59 | 2.4 | 1002 | 0.0
05:00 Uhr | leichter Regen | 14 --- --- 13 --- | W 37 59 | 1.2 | 1003 | 0.0
08:00 Uhr | leichter Regen | 14 --- 13 13 --- | W 35 61 | 2.8 | 1004 | 0.1
11:00 Uhr | leichter Regen | 15 --- --- 16 --- | W 35 59 | 1.9 | 1006 | 0.9
14:00 Uhr | leichter Regen | 16 --- --- 17 --- | W 35 59 | 1.1 | 1008 | 1.2
17:00 Uhr | leichter Regen | 16 --- --- 16 --- | W 35 56 | 0.9 | 1009 | 1.2
20:00 Uhr | leichter Regen | 15 17 --- 13 --- | W 33 54 | 0.7 | 1010 | 0.7
23:00 Uhr | leichter Regen | 14 --- --- 12 15 | W 28 48 | 1.0 12.0 | 1010 | 0.0 4.0
Freitag - 11.09.2026
| Wetter - | Temperaturen | Wind | Niederschlag | Druck | Sonne
Zeit GZ | Bewölkung | TT MAX MIN TG TM | DD FF FX3 | RR3 RR24 | PPPP | SS3 SS24
02:00 Uhr | leichter Regen | 14 --- --- 12 --- | W 28 46 | 0.9 | 1010 | 0.0
05:00 Uhr | leichter Regen | 14 --- --- 12 --- | W 30 50 | 1.1 | 1010 | 0.0
08:00 Uhr | leichter Regen | 14 --- 13 13 --- | W 32 50 | 0.9 | 1010 | 0.1
11:00 Uhr | leichter Regen | 15 --- --- 16 --- | W 32 50 | 0.8 | 1011 | 1.0
14:00 Uhr | wolkig | 16 --- --- 18 --- | W 32 50 | 1.0 | 1012 | 1.3
17:00 Uhr | wolkig | 16 --- --- 16 --- | W 32 52 | 0.0 | 1013 | 1.2
20:00 Uhr | wolkig | 15 17 --- 14 --- | W 30 50 | 0.0 | 1014 | 0.7
23:00 Uhr | wolkig | 14 --- --- 12 15 | W 28 46 | 0.0 4.7 | 1015 | 0.0 4.4
Samstag - 12.09.2026
| Wetter - | Temperaturen | Wind | Niederschlag | Druck | Sonne
Zeit GZ | Bewölkung | TT MAX MIN TG TM | DD FF FX3 | RR3 RR24 | PPPP | SS3 SS24
02:00 Uhr | wolkig | 14 --- --- 12 --- | W 26 44 | 0.0 | 1014 | 0.0
05:00 Uhr | wolkig | 14 --- --- 12 --- | W 26 43 | 0.0 | 1013 | 0.0
08:00 Uhr | wolkig | 14 --- 13 13 --- | W 28 43 | 0.0 | 1012 | 0.1
11:00 Uhr | leichter Regen | 15 --- --- 16 --- | W 30 46 | 1.2 | 1012 | 0.9
14:00 Uhr | wolkig | 16 --- --- 17 --- | W 30 46 | 0.0 | 1012 | 1.2
17:00 Uhr | wolkig | 16 --- --- 17 --- | W 28 46 | 1.1 | 1012 | 1.3
20:00 Uhr | wolkig | 15 17 --- 14 --- | W 26 44 | 0.0 | 1013 | 0.8
23:00 Uhr | wolkig | 14 --- --- 12 14 | NW 26 43 | 0.0 2.3 | 1013 | 0.0 4.2
Sonntag - 13.09.2026
| Wetter - | Temperaturen | Wind | Niederschlag | Druck | Sonne
Zeit GZ | Bewölkung | TT MAX MIN TG TM | DD FF FX3 | RR3 RR24 | PPPP | SS3 SS24
02:00 Uhr | wolkig | 14 --- --- 12 --- | W 24 44 | 0.0 | 1012 | 0.0
05:00 Uhr | wolkig | 14 --- --- 12 --- | W 24 43 | 0.0 | 1012 | 0.0
08:00 Uhr | wolkig | 14 --- 13 13 --- | W 26 43 | 0.0 | 1013 | 0.1
11:00 Uhr | wolkig | 15 --- --- 17 --- | W 28 44 | 0.0 | 1014 | 0.9
14:00 Uhr | wolkig | 16 --- --- 18 --- | W 28 44 | 0.0 | 1014 | 1.4
17:00 Uhr | wolkig | 16 --- --- 17 --- | W 26 44 | 0.0 | 1014 | 1.5
20:00 Uhr | wolkig | 15 17 --- 14 --- | W 24 44 | 0.0 | 1015 | 0.8
23:00 Uhr | wolkig | 15 --- --- 13 15 | W 24 41 | 0.0 0.0 | 1014 | 0.0 4.6
Montag - 14.09.2026
| Wetter - | Temperaturen | Wind | Niederschlag | Druck | Sonne
Zeit GZ | Bewölkung | TT MAX MIN TG TM | DD FF FX3 | RR3 RR24 | PPPP | SS3 SS24
02:00 Uhr | wolkig | 14 --- --- 12 --- | W 26 --- | 0.0 | 1014 | 0.0
05:00 Uhr | wolkig | 14 --- --- 12 --- | W 26 --- | 0.0 | 1014 | 0.0
08:00 Uhr | wolkig | 15 --- 14 14 --- | SW 26 --- | 0.0 | 1016 | 0.2
---:00 Uhr | --- | --- --- --- --- --- | --- --- --- | --- | --- | ---
---:00 Uhr | --- | --- --- --- --- --- | --- --- --- | --- | --- | ---
---:00 Uhr | --- | --- --- --- --- --- | --- --- --- | --- | --- | ---
---:00 Uhr | --- | --- --- --- --- --- | --- --- --- | --- | --- | ---
---:00 Uhr | --- | --- --- --- --- --- | --- --- --- | --- --- | --- | ---


Wetter : Wetter/Bewölkung zum Termin (aktuelle Stunde) TT : Lufttemperatur in Grad Celsius zum Termin MAX : Maximum Lufttemperatur in Grad Celsius letzte 12 Stunden MIN : Minimum Lufttemperatur der vergangenen Nacht in Grad Celsius letzte 12 Stunden TG : Temperatur in 5cm überm Erdboden TM : Tagesmittel Lufttemperatur in Grad Celsius letzte 24 Stunden DD : Windrichtung zum Termin FF : Windgeschwindigkeit zum Termin FX1 : höchste Windspitze im Bezugszeitraum letzte 1 Stunde in km/h FX3 : höchste Windspitze im Bezugszeitraum letzte 3 Stunden in km/h PPPP : reduzierter Luftdruck auf Meereshöhe in hPa zum Termin RR1 : Niederschlagsmenge im Bezugszeitraum letzte 1 Stunde in mm = l/qm RR3 : Niederschlagsmenge im Bezugszeitraum letzte 3 Stunden in mm = l/qm RR24 : Niederschlagsmenge im Bezugszeitraum letzte 24 Stunden in mm = l/qm SS1 : Sonnenscheindauer letzte 1 Stunde SS3 : Sonnenscheindauer letzte 3 Stunden SS24 : Sonnenscheindauer letzte 24 Stunden --- : Wert nicht vorhanden